Weather History for LTCF - March, 2013

Change the Weather History Date:

Tuesday, March 19, 2013

  Actual Average Record
Temperature  
Mean Temperature 18 °F -  
Max Temperature 36 °F 46 °F - ()
Min Temperature 1 °F 27 °F - ()
Degree Days  
Heating Degree Days 46    
Moisture  
Dew Point 14 °F    
Average Humidity 76    
Maximum Humidity 100    
Minimum Humidity 38    
Precipitation  
Precipitation 0.00 in 0.05 in - ()
Sea Level Pressure  
Sea Level Pressure 30.02 in    
Wind  
Wind Speed 4 mph ()    
Max Wind Speed 10 mph    
Max Gust Speed -    
Visibility 6.1 miles    
Events      
T = Trace of Precipitation, MM = Missing Value Source: Averaged Metar Reports

Daily Weather History Graph

Daily Weather History Graph

Search for Another Location

Airport or City:

Trip Planner

Search our weather history database for the weather conditions in past years. The results will help you decide how hot, cold, wet, or windy it might be!

Date:

Astronomy

Mar. 19, 2013 Rise Set
Actual Time 5:12 AM EET 5:18 PM EET
Civil Twilight 4:45 AM EET 5:45 PM EET
Nautical Twilight 4:13 AM EET 6:17 PM EET
Astronomical Twilight 3:41 AM EET 6:50 PM EET
Moon 9:42 AM EET (3/19) No Moon Set
Length of Visible Light 13h 00m
Length of Day
12h 05m
Waxing Crescent, 47% of the Moon is Illuminated
Mar 19
Waxing Crescent
Mar 19
First Quarter
Mar 27
Full
Apr 3
Last Quarter
Apr 10
New

Hourly Weather History & Observations

Time (EET) Temp. Windchill Dew Point Humidity Pressure Visibility Wind Dir Wind Speed Gust Speed Precip Events Conditions
12:50 AM 10.4 °F -0.4 °F 6.8 °F 85% 29.98 in - ESE 6.9 mph - N/A   Clear
1:50 AM 6.8 °F -4.8 °F 3.2 °F 85% 30.01 in - ESE 6.9 mph - N/A   Clear
2:00 AM 6 °F - -2 °F 55%  in 6 mi ESE 6.9 mph - -  
2:50 AM 3.2 °F -9.1 °F 1.4 °F 92% 30.01 in - ESE 6.9 mph - N/A   Clear
3:50 AM 1.4 °F -12.5 °F -0.4 °F 92% 30.01 in - ESE 8.1 mph - N/A   Clear
4:50 AM 3.2 °F -9.1 °F 1.4 °F 92% 30.01 in - ESE 6.9 mph - N/A   Clear
5:50 AM 8.6 °F -4.7 °F 6.8 °F 92% 30.01 in - SE 9.2 mph - N/A   Clear
6:50 AM 8.6 °F -5.5 °F 6.8 °F 92% 30.01 in - SE 10.4 mph - N/A   Clear
7:50 AM 8.6 °F 0.1 °F 6.8 °F 92% 30.01 in - SE 4.6 mph - N/A   Clear
8:50 AM 26.6 °F - 14.0 °F 59% 30.06 in - SSW 2.3 mph - N/A   Clear
9:50 AM 26.6 °F - 14.0 °F 59% 30.04 in - Calm Calm - N/A   Clear
10:50 AM 32.0 °F - 14.0 °F 48% 30.04 in - Calm Calm - N/A   Clear
11:50 AM 30.2 °F - 15.8 °F 55% 30.04 in - Calm Calm - N/A   Clear
12:50 PM 32.0 °F - 15.8 °F 51% 30.01 in - Calm Calm - N/A   Clear
1:50 PM 33.8 °F - 19.4 °F 56% 30.01 in - Calm Calm - N/A   Clear
2:00 PM 34 °F - 18 °F 38%  in 6 mi Calm Calm - -   Clear
2:50 PM 35.6 °F - 19.4 °F 52% 30.01 in - Calm Calm - N/A   Clear
3:50 PM 30.2 °F 23.4 °F 23.0 °F 75% 30.01 in - NNE 6.9 mph - N/A   Clear
4:50 PM 28.4 °F 21.2 °F 21.2 °F 74% 30.01 in - NE 6.9 mph - N/A   Clear
5:50 PM 26.6 °F 20.0 °F 21.2 °F 80% 30.01 in 6.2 mi NNE 5.8 mph - N/A   Scattered Clouds
6:50 PM 24.8 °F - 21.2 °F 86% 30.04 in 6.2 mi Calm Calm - N/A   Scattered Clouds
7:50 PM 26.6 °F - 19.4 °F 74% 30.04 in 6.2 mi Calm Calm - N/A   Scattered Clouds
8:00 PM 26 °F - 20 °F 69%  in 6 mi Calm Calm - -   Partly Cloudy
8:50 PM 23.0 °F - 21.2 °F 93% 30.04 in 6.2 mi Calm Calm - N/A   Scattered Clouds
9:50 PM 21.2 °F - 21.2 °F 100% 30.04 in 6.2 mi Variable 1.2 mph - N/A   Scattered Clouds
10:50 PM 21.2 °F - 19.4 °F 93% 30.04 in 6.2 mi Variable 1.2 mph - N/A   Scattered Clouds
11:50 PM 21.2 °F - 21.2 °F 100% 30.04 in 6.2 mi Calm Calm - N/A   Scattered Clouds